Hourly Weather Kivchey

Today, 29 July, Thursday

Time Temperature Precipitation Wind Pressure Humidity
00:00 +20°C° 0 mm 3 mps 741 mmHg 67%
01:00 +19°C° 0 mm 2 mps 741 mmHg 72%
02:00 +19°C° 0 mm 2 mps 741 mmHg 76%
03:00 +19°C° 0 mm 2 mps 740 mmHg 77%
04:00 +18°C° 0.1 mm 2 mps 740 mmHg 81%
05:00 +18°C° 0.1 mm 2 mps 740 mmHg 85%
06:00 +18°C° 0.1 mm 2 mps 740 mmHg 88%
07:00 +18°C° 0.4 mm 2 mps 739 mmHg 90%
08:00 +18°C° 0.4 mm 2 mps 739 mmHg 91%
09:00 +18°C° 0 mm 2 mps 739 mmHg 93%
10:00 +19°C° 0 mm 3 mps 738 mmHg 85%
11:00 +21°C° 0 mm 3 mps 738 mmHg 78%
12:00 +22°C° 0 mm 3 mps 738 mmHg 70%
13:00 +24°C° 0.3 mm 3 mps 737 mmHg 70%
14:00 +24°C° 0.3 mm 3 mps 737 mmHg 69%
15:00 +25°C° 0.3 mm 3 mps 736 mmHg 69%
16:00 +25°C° 0.7 mm 3 mps 736 mmHg 73%
17:00 +23°C° 0.7 mm 4 mps 736 mmHg 78%
18:00 +22°C° 0.7 mm 4 mps 736 mmHg 82%
19:00 +21°C° 0.2 mm 3 mps 736 mmHg 86%
20:00 +20°C° 0.2 mm 3 mps 736 mmHg 89%
21:00 +19°C° 0.2 mm 2 mps 736 mmHg 93%
22:00 +19°C° 0 mm 2 mps 736 mmHg 93%
23:00 +18°C° 0 mm 2 mps 736 mmHg 94%

Tomorrow, 30 July, Friday

Time Temperature Precipitation Wind Pressure Humidity
00:00 +18°C° 0 mm 2 mps 736 mmHg 94%
01:00 +18°C° 0 mm 2 mps 736 mmHg 94%
02:00 +18°C° 0 mm 2 mps 736 mmHg 94%
03:00 +17°C° 0 mm 2 mps 736 mmHg 95%
04:00 +18°C° 0 mm 2 mps 736 mmHg 93%
05:00 +18°C° 0 mm 2 mps 736 mmHg 91%
06:00 +19°C° 0 mm 2 mps 737 mmHg 90%
07:00 +21°C° 0 mm 2 mps 737 mmHg 81%
08:00 +24°C° 0 mm 3 mps 737 mmHg 73%
09:00 +26°C° 0 mm 3 mps 737 mmHg 65%
10:00 +27°C° 0 mm 3 mps 737 mmHg 59%
11:00 +29°C° 0 mm 4 mps 737 mmHg 53%
12:00 +30°C° 0 mm 4 mps 737 mmHg 47%
13:00 +29°C° 0.2 mm 4 mps 736 mmHg 50%
14:00 +29°C° 0.2 mm 4 mps 736 mmHg 53%
15:00 +28°C° 0.2 mm 4 mps 735 mmHg 56%
16:00 +26°C° 5.3 mm 4 mps 735 mmHg 70%
17:00 +22°C° 5.3 mm 4 mps 735 mmHg 83%
18:00 +20°C° 5.3 mm 4 mps 735 mmHg 96%
19:00 +19°C° 1.6 mm 3 mps 735 mmHg 96%
20:00 +19°C° 1.6 mm 3 mps 735 mmHg 96%
21:00 +19°C° 1.6 mm 2 mps 735 mmHg 96%
22:00 +19°C° 0 mm 3 mps 735 mmHg 96%
23:00 +19°C° 0 mm 3 mps 735 mmHg 97%

Day after tomorrow, 31 July, Saturday

Time Temperature Precipitation Wind Pressure Humidity
00:00 +19°C° 0 mm 3 mps 735 mmHg 97%
01:00 +19°C° 0 mm 3 mps 735 mmHg 97%
02:00 +19°C° 0 mm 3 mps 735 mmHg 97%
03:00 +18°C° 0 mm 3 mps 735 mmHg 97%
04:00 +19°C° 0 mm 3 mps 735 mmHg 96%
05:00 +19°C° 0 mm 3 mps 735 mmHg 96%
06:00 +19°C° 0 mm 3 mps 735 mmHg 95%
07:00 +21°C° 0 mm 3 mps 736 mmHg 88%
08:00 +22°C° 0 mm 3 mps 736 mmHg 80%
09:00 +23°C° 0 mm 4 mps 736 mmHg 72%
10:00 +26°C° 0 mm 4 mps 736 mmHg 65%
11:00 +27°C° 0 mm 5 mps 736 mmHg 57%
12:00 +28°C° 0 mm 6 mps 737 mmHg 49%
13:00 +28°C° 0 mm 5 mps 737 mmHg 47%
14:00 +28°C° 0 mm 5 mps 737 mmHg 45%
15:00 +29°C° 0 mm 5 mps 737 mmHg 43%
16:00 +28°C° 0 mm 5 mps 737 mmHg 45%
17:00 +27°C° 0 mm 4 mps 737 mmHg 47%
18:00 +26°C° 0 mm 4 mps 737 mmHg 49%
19:00 +24°C° 0 mm 3 mps 737 mmHg 53%
20:00 +21°C° 0 mm 3 mps 738 mmHg 58%
21:00 +20°C° 0 mm 2 mps 738 mmHg 63%
22:00 +19°C° 0 mm 2 mps 738 mmHg 64%
23:00 +19°C° 0 mm 2 mps 738 mmHg 65%

1 August, Sunday

Time Temperature Precipitation Wind Pressure Humidity
00:00 +19°C° 0 mm 2 mps 738 mmHg 66%
01:00 +18°C° 0 mm 2 mps 739 mmHg 68%
02:00 +18°C° 0 mm 2 mps 739 mmHg 70%
03:00 +17°C° 0 mm 2 mps 739 mmHg 72%
04:00 +17°C° 0 mm 2 mps 739 mmHg 73%
05:00 +18°C° 0 mm 2 mps 740 mmHg 74%
06:00 +18°C° 0 mm 2 mps 740 mmHg 74%
07:00 +20°C° 0 mm 2 mps 740 mmHg 67%
08:00 +22°C° 0 mm 3 mps 740 mmHg 60%
09:00 +25°C° 0 mm 3 mps 741 mmHg 53%
10:00 +26°C° 0 mm 3 mps 741 mmHg 49%
11:00 +27°C° 0 mm 4 mps 741 mmHg 45%
12:00 +29°C° 0 mm 4 mps 741 mmHg 42%
13:00 +29°C° 0 mm 4 mps 741 mmHg 40%
14:00 +30°C° 0 mm 4 mps 740 mmHg 39%
15:00 +30°C° 0 mm 4 mps 740 mmHg 38%
16:00 +30°C° 0 mm 4 mps 740 mmHg 43%
17:00 +29°C° 0 mm 3 mps 740 mmHg 48%
18:00 +28°C° 0 mm 3 mps 739 mmHg 53%
19:00 +27°C° 0 mm 3 mps 739 mmHg 56%
20:00 +25°C° 0 mm 3 mps 739 mmHg 58%
21:00 +24°C° 0 mm 3 mps 739 mmHg 61%
22:00 +23°C° 0 mm 4 mps 739 mmHg 60%
23:00 +23°C° 0 mm 4 mps 739 mmHg 59%

2 August, Monday

Time Temperature Precipitation Wind Pressure Humidity
00:00 +23°C° 0 mm 4 mps 739 mmHg 58%
01:00 +22°C° 0 mm 4 mps 739 mmHg 58%
02:00 +22°C° 0 mm 4 mps 739 mmHg 58%
03:00 +21°C° 0 mm 4 mps 739 mmHg 58%
04:00 +21°C° 0 mm 4 mps 739 mmHg 60%
05:00 +21°C° 0 mm 4 mps 739 mmHg 62%
06:00 +21°C° 0 mm 4 mps 739 mmHg 63%
07:00 +23°C° 0 mm 4 mps 739 mmHg 60%
08:00 +25°C° 0 mm 4 mps 739 mmHg 58%
09:00 +27°C° 0 mm 4 mps 739 mmHg 55%
10:00 +28°C° 0 mm 4 mps 739 mmHg 52%
11:00 +30°C° 0 mm 4 mps 739 mmHg 50%
12:00 +32°C° 0 mm 5 mps 739 mmHg 47%
13:00 +33°C° 0 mm 5 mps 739 mmHg 44%
14:00 +34°C° 0 mm 5 mps 738 mmHg 41%
15:00 +35°C° 0 mm 5 mps 738 mmHg 38%
16:00 +32°C° 0.5 mm 5 mps 738 mmHg 50%
17:00 +28°C° 0.5 mm 4 mps 738 mmHg 63%
18:00 +25°C° 0.5 mm 4 mps 738 mmHg 75%
19:00 +23°C° 0.9 mm 4 mps 738 mmHg 78%
20:00 +22°C° 0.9 mm 3 mps 738 mmHg 81%
21:00 +22°C° 0.9 mm 3 mps 738 mmHg 85%
22:00 +21°C° 0 mm 3 mps 738 mmHg 84%
23:00 +21°C° 0 mm 3 mps 738 mmHg 84%

3 August, Tuesday

Time Temperature Precipitation Wind Pressure Humidity
00:00 +21°C° 0 mm 2 mps 738 mmHg 83%
01:00 +20°C° 0.1 mm 3 mps 737 mmHg 84%
02:00 +20°C° 0.1 mm 3 mps 737 mmHg 85%
03:00 +20°C° 0.1 mm 3 mps 737 mmHg 85%
04:00 +21°C° 0 mm 3 mps 736 mmHg 83%
05:00 +21°C° 0 mm 2 mps 736 mmHg 81%
06:00 +21°C° 0 mm 2 mps 736 mmHg 79%
07:00 +24°C° 0 mm 3 mps 736 mmHg 70%
08:00 +26°C° 0 mm 3 mps 736 mmHg 62%
09:00 +29°C° 0 mm 4 mps 736 mmHg 53%
10:00 +30°C° 0 mm 4 mps 736 mmHg 50%
11:00 +32°C° 0 mm 5 mps 737 mmHg 48%
12:00 +32°C° 0 mm 6 mps 737 mmHg 45%
13:00 +32°C° 0 mm 6 mps 737 mmHg 46%
14:00 +32°C° 0 mm 6 mps 737 mmHg 47%
15:00 +32°C° 0 mm 5 mps 737 mmHg 49%
16:00 +30°C° 0.1 mm 5 mps 737 mmHg 52%
17:00 +29°C° 0.1 mm 4 mps 737 mmHg 56%
18:00 +28°C° 0.1 mm 3 mps 736 mmHg 60%
19:00 +26°C° 0.2 mm 3 mps 737 mmHg 68%
20:00 +23°C° 0.2 mm 4 mps 738 mmHg 75%
21:00 +20°C° 0.2 mm 4 mps 738 mmHg 83%
22:00 +19°C° 0 mm 4 mps 739 mmHg 80%
23:00 +18°C° 0 mm 4 mps 739 mmHg 76%
Show more